This is the latest recevied weather packets stored in our database for station/object N5PRN. If no packets are shown the sender has not sent any weather packets the latest 10 day(s).
| Time | Temp. | Humidity | Pressure | Rain* | Wind** | Luminosity | Snow |
|---|---|---|---|---|---|---|---|
| 1778018641 | 25.56° C | 86% | 1008.2 hPa | 0 mm | - | 203 W/m² | - |
| 1778018339 | 25.56° C | 86% | 1008.4 hPa | 0 mm | - | 216 W/m² | - |
| 1778018037 | 25.56° C | 86% | 1008.4 hPa | 0 mm | - | 249 W/m² | - |
| 1778017735 | 25.56° C | 87% | 1008.6 hPa | 0 mm | - | 315 W/m² | - |
| 1778017432 | 25.56° C | 87% | 1008.8 hPa | 0 mm | - | 192 W/m² | - |
| 1778017130 | 25.56° C | 87% | 1008.7 hPa | 0 mm | - | 152 W/m² | - |
| 1778016827 | 25.56° C | 87% | 1008.8 hPa | 0 mm | - | 175 W/m² | - |
| 1778016522 | 25.56° C | 86% | 1008.8 hPa | 0 mm | - | 196 W/m² | - |
| 1778016220 | 25.56° C | 87% | 1008.9 hPa | 0 mm | - | 316 W/m² | - |
| 1778015916 | 25° C | 87% | 1009.2 hPa | 0 mm | - | 253 W/m² | - |
| 1778015614 | 25° C | 88% | 1009.1 hPa | 0 mm | - | 180 W/m² | - |
| 1778015304 | 25° C | 88% | 1009.1 hPa | 0 mm | - | 167 W/m² | - |
| 1778015001 | 25° C | 88% | 1009.1 hPa | 0 mm | - | 172 W/m² | - |
| 1778014698 | 25° C | 88% | 1009.3 hPa | 0 mm | - | 104 W/m² | - |
| 1778014397 | 25° C | 88% | 1009 hPa | 0 mm | - | 200 W/m² | - |
| 1778014093 | 25° C | 88% | 1009.3 hPa | 0 mm | - | 111 W/m² | - |
| 1778013791 | 25° C | 87% | 1009.2 hPa | 0 mm | - | 89 W/m² | - |
| 1778013488 | 25° C | 87% | 1009.3 hPa | 0 mm | - | 153 W/m² | - |
| 1778013185 | 25° C | 87% | 1009.4 hPa | 0 mm | - | 141 W/m² | - |
| 1778012881 | 25° C | 87% | 1009.4 hPa | 0 mm | - | 140 W/m² | - |
| 1778012577 | 25° C | 87% | 1009.6 hPa | 0 mm | - | 133 W/m² | - |
| 1778012273 | 25° C | 87% | 1009.3 hPa | 0 mm | - | 98 W/m² | - |
| 1778011971 | 25° C | 86% | 1009.4 hPa | 0 mm | - | 88 W/m² | - |
| 1778011669 | 25° C | 86% | 1009.3 hPa | 0 mm | - | 115 W/m² | - |
| 1778011360 | 25° C | 85% | 1009.2 hPa | 0 mm | - | 78 W/m² | - |
* Rain latest hour (hover to see other rain measurements)
** Current wind speed in m/s (hover to see current wind gust speed)